Artesia, CA

8:11 PM PST on December 20, 2014 (GMT -0800)
KCALONGB15 | Change Station
CLOSE
Current Station
Personal Weather Station
Location: Long Beach, CA
Elevation: 66 ft
Nearby Weather Stations
Active Advisory: High Surf Advisory Active Notice: Public Information Statement

Elev 66 ft 33.83 °N, 118.12 °W | Updated 5 minutes ago

Overcast
Overcast
58.7 °F
Feels Like 58.7 °F
N
0.0
Wind Variable Wind from SW

Today
High -- | Low -- °F
--% Chance of Precip.
Yesterday
High -- | Low -- °F
Precip. -- in
6:53 AM 4:47 PM
Waning Crescent, 1% visible
Pressure 30.14 in
Visibility 9.0 miles
Clouds Overcast 2400 ft
Dew Point 55 °F
Humidity 87%
Rainfall 0.00 in
Snow Depth Not available.
UV 0 out of 12
Pollen 4.00 out of 12
Air Quality Not available.
Flu Activity Not available.
METAR KLGB 210353Z 12004KT 9SM OVC024 16/13 A3014 RMK AO2 SLP206 T01560128

More Conditions Fewer Conditions

Pressure 30.14 in
Visibility 9.0 miles
Clouds Overcast 2400 ft
Dew Point 55 °F
Humidity 87%
Rainfall 0.00 in
Snow Depth Not available.
UV 0 out of 12
Pollen 4.00 out of 12
Air Quality Not available.
Flu Activity Not available.
METAR KLGB 210353Z 12004KT 9SM OVC024 16/13 A3014 RMK AO2 SLP206 T01560128

More Conditions Fewer Conditions

10-Day Weather Forecast

Almanac

Astronomy

Dec. 20, 2014 Rise Set
Actual Time
Civil Twilight
Nautical Twilight
Astronomical Twilight
Moon
Length of Visible Light
Length of Day
Tomorrow will be .
, % of the Moon is Illuminated

Today's Extremes

State Highs State Lows

Community

WunderPhotos

Upload Photos

1,779,357 photos uploaded!

WunderBlogs® & News

Nearby

Air Quality

  Air Quality AQ Index Pollutant
Not available.

Snow Depth

Station Depth Elevation

Earthquake Activity

City Distance Mag. Time & Date
Minimum magnitude displayed is 2.5.

Coastal Water Temperatures

Place Temperature

Nearby Weather Stations